Time,TemperatureF,DewpointF,PressureIn,WindDirection,WindDirectionDegrees,WindSpeedMPH,WindSpeedGustMPH,Humidity,HourlyPrecipIn,Conditions,Clouds,dailyrainin,SoftwareType,DateUTC
2015-03-02 00:01:00,36.6,36.1,30.36,NNE,21,11.5,11.5,98,0.00,RA,,0.00,WeatherDisplay:10.37,2015-03-02 06:01:00,
2015-03-02 00:06:00,36.6,36.1,30.36,NE,40,9.2,9.2,98,0.00,RA,,0.00,WeatherDisplay:10.37,2015-03-02 06:06:00,
2015-03-02 00:11:00,36.6,36.1,30.36,NNW,330,10.4,10.4,98,0.00,CLR,,0.00,WeatherDisplay:10.37,2015-03-02 06:11:00,
2015-03-02 00:16:00,36.6,36.1,30.35,NNW,342,5.8,5.8,98,0.00,CLR,,0.00,WeatherDisplay:10.37,2015-03-02 06:16:00,
2015-03-02 00:21:00,36.5,36.0,30.35,NNW,331,11.5,11.5,98,0.00,CLR,,0.00,WeatherDisplay:10.37,2015-03-02 06:21:00,
2015-03-02 00:26:00,36.5,36.0,30.35,NNE,19,9.2,9.2,98,0.00,CLR,,0.00,WeatherDisplay:10.37,2015-03-02 06:26:00,
2015-03-02 00:31:00,36.4,35.9,30.35,NNW,345,11.5,11.5,98,0.00,CLR,,0.00,WeatherDisplay:10.37,2015-03-02 06:31:00,
2015-03-02 00:36:00,36.4,35.9,30.34,NNE,20,10.4,10.4,98,0.00,CLR,,0.00,WeatherDisplay:10.37,2015-03-02 06:36:00,
2015-03-02 00:41:00,36.3,35.8,30.35,NW,325,5.8,5.8,98,0.00,CLR,,0.00,WeatherDisplay:10.37,2015-03-02 06:41:00,
2015-03-02 00:46:00,36.3,35.8,30.36,NW,321,10.0,10.0,98,0.00,CLR,,0.00,WeatherDisplay:10.37,2015-03-02 06:46:00,
2015-03-02 00:51:00,36.3,35.8,30.36,North,355,8.1,8.1,98,0.00,CLR,,0.00,WeatherDisplay:10.37,2015-03-02 06:51:00,
2015-03-02 00:56:00,36.3,35.8,30.36,North,350,10.4,10.4,98,0.00,CLR,,0.00,WeatherDisplay:10.37,2015-03-02 06:56:00,
2015-03-02 01:01:00,36.3,35.8,30.36,NW,323,10.4,10.4,98,0.00,CLR,,0.00,WeatherDisplay:10.37,2015-03-02 07:01:00,
2015-03-02 01:06:00,36.3,35.8,30.36,NNW,329,6.0,6.0,98,0.00,CLR,,0.00,WeatherDisplay:10.37,2015-03-02 07:06:00,
2015-03-02 01:11:00,36.3,35.8,30.35,North,355,6.9,6.9,98,0.00,CLR,,0.00,WeatherDisplay:10.37,2015-03-02 07:11:00,
2015-03-02 01:16:00,36.3,35.8,30.36,NNW,339,8.1,8.1,98,0.02,RA,,0.02,WeatherDisplay:10.37,2015-03-02 07:16:00,
2015-03-02 01:21:00,36.3,35.8,30.37,North,355,10.4,10.4,98,0.03,RA,,0.03,WeatherDisplay:10.37,2015-03-02 07:21:00,
2015-03-02 01:26:00,36.2,35.7,30.37,NNW,331,10.4,10.4,98,0.03,RA,,0.03,WeatherDisplay:10.37,2015-03-02 07:26:00,
2015-03-02 01:31:00,36.2,35.7,30.36,NW,324,9.2,9.2,98,0.03,CLR,,0.03,WeatherDisplay:10.37,2015-03-02 07:31:00,
2015-03-02 01:36:00,36.2,35.7,30.36,NNE,25,15.0,15.0,98,0.03,CLR,,0.03,WeatherDisplay:10.37,2015-03-02 07:36:00,
2015-03-02 01:41:00,36.1,35.6,30.35,NNW,342,9.2,9.2,98,0.03,CLR,,0.03,WeatherDisplay:10.37,2015-03-02 07:41:00,
2015-03-02 01:46:00,36.1,35.6,30.35,NW,314,10.4,10.4,98,0.03,CLR,,0.03,WeatherDisplay:10.37,2015-03-02 07:46:00,
2015-03-02 01:51:00,36.1,35.6,30.35,NW,315,13.8,13.8,98,0.03,CLR,,0.03,WeatherDisplay:10.37,2015-03-02 07:51:00,
2015-03-02 01:56:00,36.1,35.6,30.35,NNW,329,13.8,13.8,98,0.03,CLR,,0.03,WeatherDisplay:10.37,2015-03-02 07:56:00,
2015-03-02 02:01:00,36.1,35.6,30.35,NNW,336,6.9,6.9,98,0.03,CLR,,0.03,WeatherDisplay:10.37,2015-03-02 08:01:00,
2015-03-02 02:06:00,36.0,35.5,30.35,NW,326,9.2,9.2,98,0.03,CLR,,0.03,WeatherDisplay:10.37,2015-03-02 08:06:00,
2015-03-02 02:11:00,36.0,35.5,30.35,NNW,333,13.8,13.8,98,0.03,CLR,,0.03,WeatherDisplay:10.37,2015-03-02 08:11:00,
2015-03-02 02:16:00,36.0,35.5,30.35,NNW,332,10.4,10.4,98,0.01,CLR,,0.03,WeatherDisplay:10.37,2015-03-02 08:16:00,
2015-03-02 02:21:00,35.9,35.4,30.34,NNW,337,11.5,11.5,98,0.00,CLR,,0.03,WeatherDisplay:10.37,2015-03-02 08:21:00,
2015-03-02 02:26:00,35.9,35.4,30.34,NNW,333,11.5,11.5,98,0.00,CLR,,0.03,WeatherDisplay:10.37,2015-03-02 08:26:00,
2015-03-02 02:31:00,35.8,35.3,30.34,NNE,17,11.5,11.5,98,0.00,CLR,,0.03,WeatherDisplay:10.37,2015-03-02 08:31:00,
2015-03-02 02:36:00,35.8,35.3,30.34,NW,313,10.4,10.4,98,0.00,CLR,,0.03,WeatherDisplay:10.37,2015-03-02 08:36:00,
2015-03-02 02:41:00,35.8,35.3,30.34,NNW,338,9.2,9.2,98,0.00,CLR,,0.03,WeatherDisplay:10.37,2015-03-02 08:41:00,
2015-03-02 02:46:00,35.8,35.3,30.34,North,11,9.2,9.7,98,0.00,CLR,,0.03,WeatherDisplay:10.37,2015-03-02 08:46:00,
2015-03-02 02:51:00,35.8,35.3,30.35,NNW,327,11.5,11.5,98,0.00,CLR,,0.03,WeatherDisplay:10.37,2015-03-02 08:51:00,
2015-03-02 02:56:00,35.7,35.2,30.34,North,360,5.8,5.8,98,0.00,CLR,,0.03,WeatherDisplay:10.37,2015-03-02 08:56:00,
2015-03-02 03:01:00,35.7,35.2,30.34,NNW,329,11.5,11.5,98,0.00,CLR,,0.03,WeatherDisplay:10.37,2015-03-02 09:01:00,
2015-03-02 03:06:00,35.7,35.2,30.34,NW,321,9.2,9.2,98,0.00,CLR,,0.03,WeatherDisplay:10.37,2015-03-02 09:06:00,
2015-03-02 03:11:00,35.6,35.1,30.33,NNE,26,10.4,10.4,98,0.00,CLR,,0.03,WeatherDisplay:10.37,2015-03-02 09:11:00,
2015-03-02 03:16:00,35.6,35.1,30.34,NNW,340,9.2,9.2,98,0.00,CLR,,0.03,WeatherDisplay:10.37,2015-03-02 09:16:00,
2015-03-02 03:21:00,35.6,35.1,30.34,NW,321,9.2,9.2,98,0.00,CLR,,0.03,WeatherDisplay:10.37,2015-03-02 09:21:00,
2015-03-02 03:26:00,35.5,35.0,30.34,NW,325,10.4,10.4,98,0.00,CLR,,0.03,WeatherDisplay:10.37,2015-03-02 09:26:00,
2015-03-02 03:31:00,35.5,35.0,30.33,NNE,28,6.0,6.0,98,0.00,CLR,,0.03,WeatherDisplay:10.37,2015-03-02 09:31:00,
2015-03-02 03:36:00,35.5,35.0,30.33,NNE,17,3.5,3.5,98,0.00,CLR,,0.03,WeatherDisplay:10.37,2015-03-02 09:36:00,
2015-03-02 03:41:00,35.4,34.9,30.33,NW,321,8.1,8.1,98,0.00,CLR,,0.03,WeatherDisplay:10.37,2015-03-02 09:41:00,
2015-03-02 03:46:00,35.3,34.8,30.33,NNE,19,4.6,4.6,98,0.00,CLR,,0.03,WeatherDisplay:10.37,2015-03-02 09:46:00,
2015-03-02 03:51:00,35.3,34.8,30.33,NNW,341,6.9,6.9,98,0.00,CLR,,0.03,WeatherDisplay:10.37,2015-03-02 09:51:00,
2015-03-02 03:56:00,35.2,34.7,30.33,NNE,19,9.2,9.2,98,0.00,CLR,,0.03,WeatherDisplay:10.37,2015-03-02 09:56:00,
2015-03-02 04:01:00,35.2,34.7,30.33,NNW,329,4.6,4.6,98,0.00,CLR,,0.03,WeatherDisplay:10.37,2015-03-02 10:01:00,
2015-03-02 04:06:00,35.1,34.6,30.33,NNW,343,6.9,6.9,98,0.00,CLR,,0.03,WeatherDisplay:10.37,2015-03-02 10:06:00,
2015-03-02 04:11:00,35.0,34.5,30.33,NW,304,9.2,9.2,98,0.00,CLR,,0.03,WeatherDisplay:10.37,2015-03-02 10:11:00,
2015-03-02 04:16:00,35.0,34.5,30.33,NW,325,8.1,8.1,98,0.00,CLR,,0.03,WeatherDisplay:10.37,2015-03-02 10:16:00,
2015-03-02 04:21:00,34.9,34.4,30.33,NNW,338,11.5,11.5,98,0.00,CLR,,0.03,WeatherDisplay:10.37,2015-03-02 10:21:00,
2015-03-02 04:26:00,34.9,34.4,30.33,ENE,77,4.6,4.6,98,0.00,CLR,,0.03,WeatherDisplay:10.37,2015-03-02 10:26:00,
2015-03-02 04:31:00,35.0,34.5,30.32,North,360,8.1,8.1,98,0.00,CLR,,0.03,WeatherDisplay:10.37,2015-03-02 10:31:00,
2015-03-02 04:36:00,34.9,34.4,30.33,NNW,336,8.1,8.1,98,0.00,CLR,,0.03,WeatherDisplay:10.37,2015-03-02 10:36:00,
2015-03-02 04:41:00,34.9,34.4,30.33,NNW,330,12.7,12.7,98,0.00,CLR,,0.03,WeatherDisplay:10.37,2015-03-02 10:41:00,
2015-03-02 04:46:00,34.9,34.4,30.32,NNE,32,4.6,4.6,98,0.00,CLR,,0.03,WeatherDisplay:10.37,2015-03-02 10:46:00,
2015-03-02 04:51:00,34.9,34.4,30.32,NNW,329,9.2,9.2,98,0.00,CLR,,0.03,WeatherDisplay:10.37,2015-03-02 10:51:00,
2015-03-02 04:56:00,34.9,34.4,30.33,NE,40,10.4,10.4,98,0.00,CLR,,0.03,WeatherDisplay:10.37,2015-03-02 10:56:00,
2015-03-02 05:01:00,35.0,34.5,30.33,NE,38,10.4,10.4,98,0.00,CLR,,0.03,WeatherDisplay:10.37,2015-03-02 11:01:00,
2015-03-02 05:06:00,34.9,34.4,30.33,NNW,333,8.1,8.1,98,0.00,CLR,,0.03,WeatherDisplay:10.37,2015-03-02 11:06:00,
2015-03-02 05:11:00,34.9,34.4,30.33,North,9,9.2,9.2,98,0.00,CLR,,0.03,WeatherDisplay:10.37,2015-03-02 11:11:00,
2015-03-02 05:16:00,34.9,34.4,30.33,NE,42,9.2,9.2,98,0.00,CLR,,0.03,WeatherDisplay:10.37,2015-03-02 11:16:00,
2015-03-02 05:21:00,34.9,34.4,30.33,NE,50,9.2,9.2,98,0.00,CLR,,0.03,WeatherDisplay:10.37,2015-03-02 11:21:00,
2015-03-02 05:26:00,34.9,34.4,30.33,NE,50,6.0,6.0,98,0.00,CLR,,0.03,WeatherDisplay:10.37,2015-03-02 11:26:00,
2015-03-02 05:31:00,35.0,34.5,30.33,NE,34,6.0,6.0,98,0.00,CLR,,0.03,WeatherDisplay:10.37,2015-03-02 11:31:00,
2015-03-02 05:36:00,35.0,34.5,30.34,NE,36,5.8,5.8,98,0.00,CLR,,0.03,WeatherDisplay:10.37,2015-03-02 11:36:00,
2015-03-02 05:41:00,35.0,34.5,30.34,NNW,331,5.0,5.0,98,0.00,CLR,,0.03,WeatherDisplay:10.37,2015-03-02 11:41:00,
2015-03-02 05:46:00,35.0,34.5,30.34,NNW,338,5.8,5.8,98,0.00,CLR,,0.03,WeatherDisplay:10.37,2015-03-02 11:46:00,
2015-03-02 05:51:00,35.0,34.5,30.34,NNE,30,9.2,9.2,98,0.00,CLR,,0.03,WeatherDisplay:10.37,2015-03-02 11:51:00,
2015-03-02 05:56:00,34.9,34.4,30.34,NNW,336,10.4,10.4,98,0.00,CLR,,0.03,WeatherDisplay:10.37,2015-03-02 11:56:00,
2015-03-02 06:01:00,34.9,34.4,30.33,North,349,8.1,8.1,98,0.00,CLR,,0.03,WeatherDisplay:10.37,2015-03-02 12:01:00,
2015-03-02 06:06:00,34.9,34.4,30.34,NNW,336,12.0,12.0,98,0.00,CLR,,0.03,WeatherDisplay:10.37,2015-03-02 12:06:00,
2015-03-02 06:11:00,34.9,34.4,30.34,NW,317,10.4,10.4,98,0.00,CLR,,0.03,WeatherDisplay:10.37,2015-03-02 12:11:00,
2015-03-02 06:16:00,34.9,34.4,30.34,NE,43,8.1,8.1,98,0.00,CLR,,0.03,WeatherDisplay:10.37,2015-03-02 12:16:00,
2015-03-02 06:21:00,34.9,34.4,30.34,NNW,327,8.1,8.1,98,0.01,RA,,0.04,WeatherDisplay:10.37,2015-03-02 12:21:00,
2015-03-02 06:26:00,34.9,34.4,30.34,NNE,30,8.0,8.0,98,0.01,RA,,0.04,WeatherDisplay:10.37,2015-03-02 12:26:00,
2015-03-02 06:31:00,34.9,34.4,30.34,NW,321,9.2,9.2,98,0.01,CLR,,0.04,WeatherDisplay:10.37,2015-03-02 12:31:00,
2015-03-02 06:36:00,34.9,34.4,30.34,NNW,333,3.5,4.1,98,0.01,CLR,,0.04,WeatherDisplay:10.37,2015-03-02 12:36:00,
2015-03-02 06:41:00,34.9,34.4,30.35,NNW,347,4.6,4.6,98,0.01,CLR,,0.04,WeatherDisplay:10.37,2015-03-02 12:41:00,
2015-03-02 06:46:00,34.9,34.4,30.35,NNW,332,8.1,8.1,98,0.01,CLR,,0.04,WeatherDisplay:10.37,2015-03-02 12:46:00,
2015-03-02 06:51:00,34.9,34.4,30.35,NW,325,6.9,6.9,98,0.01,CLR,,0.04,WeatherDisplay:10.37,2015-03-02 12:51:00,
2015-03-02 06:56:00,34.9,34.4,30.35,NW,317,4.6,4.6,98,0.01,CLR,,0.04,WeatherDisplay:10.37,2015-03-02 12:56:00,
2015-03-02 07:01:00,35.0,34.5,30.35,NNE,15,5.0,5.0,98,0.01,CLR,,0.04,WeatherDisplay:10.37,2015-03-02 13:01:00,
2015-03-02 07:06:00,34.9,34.4,30.35,NNW,329,5.0,5.0,98,0.01,CLR,,0.04,WeatherDisplay:10.37,2015-03-02 13:06:00,
2015-03-02 07:11:00,34.9,34.4,30.35,NNW,330,11.5,11.5,98,0.01,CLR,,0.04,WeatherDisplay:10.37,2015-03-02 13:11:00,
2015-03-02 07:16:00,34.8,34.3,30.35,NW,321,9.2,9.2,98,0.01,CLR,,0.04,WeatherDisplay:10.37,2015-03-02 13:16:00,
2015-03-02 07:21:00,34.8,34.3,30.35,NNW,346,9.2,9.2,98,0.00,CLR,,0.04,WeatherDisplay:10.37,2015-03-02 13:21:00,
2015-03-02 07:26:00,34.8,34.3,30.35,NNE,29,8.1,8.1,98,0.00,CLR,,0.04,WeatherDisplay:10.37,2015-03-02 13:26:00,
2015-03-02 07:31:00,34.8,34.3,30.35,NW,326,5.8,5.8,98,0.00,CLR,,0.04,WeatherDisplay:10.37,2015-03-02 13:31:00,
2015-03-02 07:36:00,34.9,34.4,30.35,NE,41,9.0,9.0,98,0.00,CLR,,0.04,WeatherDisplay:10.37,2015-03-02 13:36:00,
2015-03-02 07:41:00,34.9,34.4,30.35,NNW,342,4.0,4.0,98,0.01,RA,,0.05,WeatherDisplay:10.37,2015-03-02 13:41:00,
2015-03-02 07:46:00,35.0,34.5,30.35,NE,52,4.6,4.6,98,0.01,RA,,0.05,WeatherDisplay:10.37,2015-03-02 13:46:00,
2015-03-02 07:52:00,35.0,34.5,30.35,NNW,334,8.1,8.1,98,0.01,,,0.05,WeatherDisplay:10.37,2015-03-02 13:52:00,
2015-03-02 07:57:00,35.0,34.5,30.35,NE,36,9.2,9.2,98,0.01,CLR,,0.05,WeatherDisplay:10.37,2015-03-02 13:57:00,
2015-03-02 08:02:00,35.0,34.5,30.35,NNE,30,15.0,15.0,98,0.01,CLR,,0.05,WeatherDisplay:10.37,2015-03-02 14:02:00,
2015-03-02 08:07:00,34.9,34.4,30.35,NNW,344,11.5,11.5,98,0.01,CLR,,0.05,WeatherDisplay:10.37,2015-03-02 14:07:00,
2015-03-02 08:12:00,35.0,34.5,30.35,North,11,8.1,8.1,98,0.01,CLR,,0.05,WeatherDisplay:10.37,2015-03-02 14:12:00,
2015-03-02 08:17:00,35.0,34.5,30.35,NNE,33,4.6,4.6,98,0.01,CLR,,0.05,WeatherDisplay:10.37,2015-03-02 14:17:00,
2015-03-02 08:22:00,35.0,34.5,30.36,NNE,33,10.4,10.4,98,0.01,CLR,,0.05,WeatherDisplay:10.37,2015-03-02 14:22:00,
2015-03-02 08:28:00,35.1,34.6,30.35,North,11,3.0,3.0,98,0.01,RA,,0.05,WeatherDisplay:10.37,2015-03-02 14:28:00,
2015-03-02 08:33:00,35.2,34.7,30.36,NNW,334,4.6,4.6,98,0.02,RA,,0.06,WeatherDisplay:10.37,2015-03-02 14:33:00,
2015-03-02 08:38:00,35.2,34.7,30.36,NE,38,8.1,8.1,98,0.02,RA,,0.06,WeatherDisplay:10.37,2015-03-02 14:38:00,
2015-03-02 08:43:00,35.2,34.7,30.36,NNW,347,9.2,9.2,98,0.02,CLR,,0.06,WeatherDisplay:10.37,2015-03-02 14:43:00,
2015-03-02 08:48:00,35.3,34.8,30.36,NW,313,8.1,8.1,98,0.01,CLR,,0.06,WeatherDisplay:10.37,2015-03-02 14:48:00,
2015-03-02 08:53:00,35.2,34.7,30.36,NNW,335,8.1,8.1,98,0.01,CLR,,0.06,WeatherDisplay:10.37,2015-03-02 14:53:00,
2015-03-02 08:58:00,35.3,34.8,30.35,NNW,340,10.4,10.4,98,0.01,CLR,,0.06,WeatherDisplay:10.37,2015-03-02 14:58:00,
2015-03-02 09:03:00,35.4,34.9,30.36,NW,313,6.9,6.9,98,0.01,CLR,,0.06,WeatherDisplay:10.37,2015-03-02 15:03:00,
2015-03-02 09:08:00,35.3,34.8,30.36,NNE,17,10.0,10.0,98,0.01,CLR,,0.06,WeatherDisplay:10.37,2015-03-02 15:08:00,
2015-03-02 09:13:00,35.3,34.8,30.37,NNE,20,11.5,11.5,98,0.01,CLR,,0.06,WeatherDisplay:10.37,2015-03-02 15:13:00,
2015-03-02 09:18:00,35.5,35.0,30.36,NNW,328,10.4,10.4,98,0.01,CLR,,0.06,WeatherDisplay:10.37,2015-03-02 15:18:00,
2015-03-02 09:23:00,35.6,35.1,30.37,NNW,331,8.1,8.1,98,0.01,CLR,,0.06,WeatherDisplay:10.37,2015-03-02 15:23:00,
2015-03-02 09:28:00,35.7,35.2,30.36,NW,321,5.0,5.0,98,0.01,CLR,,0.06,WeatherDisplay:10.37,2015-03-02 15:28:00,
2015-03-02 09:33:00,35.9,35.6,30.37,NW,321,9.2,9.2,99,0.00,CLR,,0.06,WeatherDisplay:10.37,2015-03-02 15:33:00,
2015-03-02 09:38:00,35.9,35.6,30.37,NNW,346,11.5,11.5,99,0.00,CLR,,0.06,WeatherDisplay:10.37,2015-03-02 15:38:00,
2015-03-02 09:43:00,36.0,35.5,30.37,ENE,62,3.5,3.5,98,0.00,CLR,,0.06,WeatherDisplay:10.37,2015-03-02 15:43:00,
2015-03-02 09:48:00,35.9,35.4,30.37,NNW,328,9.2,9.2,98,0.00,CLR,,0.06,WeatherDisplay:10.37,2015-03-02 15:48:00,
2015-03-02 09:53:00,35.9,35.4,30.37,North,350,9.0,9.0,98,0.00,CLR,,0.06,WeatherDisplay:10.37,2015-03-02 15:53:00,
2015-03-02 09:58:00,35.9,35.4,30.36,NNW,330,8.1,8.1,98,0.00,CLR,,0.06,WeatherDisplay:10.37,2015-03-02 15:58:00,
2015-03-02 10:03:00,36.0,35.5,30.36,NNW,340,8.0,8.0,98,0.00,CLR,,0.06,WeatherDisplay:10.37,2015-03-02 16:03:00,
2015-03-02 10:08:00,36.1,35.6,30.36,NNW,339,5.8,5.8,98,0.00,CLR,,0.06,WeatherDisplay:10.37,2015-03-02 16:08:00,
2015-03-02 10:13:00,36.1,35.6,30.36,NNE,17,4.6,4.6,98,0.00,CLR,,0.06,WeatherDisplay:10.37,2015-03-02 16:13:00,
2015-03-02 10:18:00,36.1,35.6,30.36,NW,326,12.7,12.7,98,0.00,CLR,,0.06,WeatherDisplay:10.37,2015-03-02 16:18:00,
2015-03-02 10:23:00,36.0,35.5,30.35,North,355,10.4,10.4,98,0.00,CLR,,0.06,WeatherDisplay:10.37,2015-03-02 16:23:00,
2015-03-02 10:28:00,36.1,35.6,30.36,North,10,10.4,10.4,98,0.00,CLR,,0.06,WeatherDisplay:10.37,2015-03-02 16:28:00,
2015-03-02 10:33:00,36.1,35.6,30.36,NE,51,6.9,6.9,98,0.00,CLR,,0.06,WeatherDisplay:10.37,2015-03-02 16:33:00,
2015-03-02 10:38:00,36.1,35.6,30.36,NW,325,9.2,9.2,98,0.00,CLR,,0.06,WeatherDisplay:10.37,2015-03-02 16:38:00,
2015-03-02 10:43:00,36.2,35.7,30.36,NW,322,11.5,11.5,98,0.00,CLR,,0.06,WeatherDisplay:10.37,2015-03-02 16:43:00,
2015-03-02 10:48:00,36.4,35.9,30.36,NW,323,4.6,4.6,98,0.00,CLR,,0.06,WeatherDisplay:10.37,2015-03-02 16:48:00,
2015-03-02 10:53:00,36.5,36.0,30.36,NNW,329,11.0,11.0,98,0.00,CLR,,0.06,WeatherDisplay:10.37,2015-03-02 16:53:00,
2015-03-02 10:58:00,36.5,36.0,30.36,NW,321,9.2,9.2,98,0.00,CLR,,0.06,WeatherDisplay:10.37,2015-03-02 16:58:00,
2015-03-02 11:03:00,36.8,36.3,30.35,NE,36,4.6,4.6,98,0.00,CLR,,0.06,WeatherDisplay:10.37,2015-03-02 17:03:00,
2015-03-02 11:08:00,37.0,36.5,30.35,NNW,331,8.1,8.1,98,0.00,CLR,,0.06,WeatherDisplay:10.37,2015-03-02 17:08:00,
2015-03-02 11:13:00,37.0,36.5,30.35,NW,323,6.9,6.9,98,0.00,CLR,,0.06,WeatherDisplay:10.37,2015-03-02 17:13:00,
2015-03-02 11:18:00,37.1,36.6,30.34,NNW,342,5.8,5.8,98,0.00,CLR,,0.06,WeatherDisplay:10.37,2015-03-02 17:18:00,
2015-03-02 11:23:00,37.3,36.8,30.34,NNW,344,8.1,8.1,98,0.00,CLR,,0.06,WeatherDisplay:10.37,2015-03-02 17:23:00,
2015-03-02 11:28:00,37.3,36.8,30.33,North,355,9.2,9.2,98,0.00,CLR,,0.06,WeatherDisplay:10.37,2015-03-02 17:28:00,
2015-03-02 11:33:00,37.4,36.9,30.33,NNW,345,9.2,9.2,98,0.00,CLR,,0.06,WeatherDisplay:10.37,2015-03-02 17:33:00,
2015-03-02 11:38:00,37.5,37.0,30.34,North,355,6.9,6.9,98,0.00,CLR,,0.06,WeatherDisplay:10.37,2015-03-02 17:38:00,
2015-03-02 11:43:00,37.6,37.1,30.34,East,83,8.1,8.1,98,0.00,CLR,,0.06,WeatherDisplay:10.37,2015-03-02 17:43:00,
2015-03-02 11:48:00,37.8,37.3,30.34,NNW,330,4.0,4.0,98,0.00,CLR,,0.06,WeatherDisplay:10.37,2015-03-02 17:48:00,
2015-03-02 11:54:00,37.7,37.2,30.33,NNE,32,8.1,8.1,98,0.00,CLR,,0.06,WeatherDisplay:10.37,2015-03-02 17:54:00,
2015-03-02 11:59:00,37.7,37.2,30.33,NNE,19,4.6,4.6,98,0.00,CLR,,0.06,WeatherDisplay:10.37,2015-03-02 17:59:00,
2015-03-02 12:04:00,37.8,37.3,30.33,ENE,76,3.5,3.5,98,0.00,CLR,,0.06,WeatherDisplay:10.37,2015-03-02 18:04:00,
2015-03-02 12:09:00,37.8,37.3,30.33,NE,41,5.8,5.8,98,0.00,CLR,,0.06,WeatherDisplay:10.37,2015-03-02 18:09:00,
2015-03-02 12:14:00,37.9,37.4,30.33,NE,49,6.9,6.9,98,0.00,CLR,,0.06,WeatherDisplay:10.37,2015-03-02 18:14:00,
2015-03-02 12:19:00,37.9,37.4,30.32,NE,47,8.1,8.1,98,0.00,CLR,,0.06,WeatherDisplay:10.37,2015-03-02 18:19:00,
2015-03-02 12:24:00,38.0,37.5,30.31,ENE,78,8.0,8.0,98,0.00,CLR,,0.06,WeatherDisplay:10.37,2015-03-02 18:24:00,
2015-03-02 12:29:00,38.1,37.6,30.30,ENE,74,4.6,4.6,98,0.00,CLR,,0.06,WeatherDisplay:10.37,2015-03-02 18:29:00,
2015-03-02 12:34:00,38.2,37.7,30.30,NE,44,6.9,6.9,98,0.00,CLR,,0.06,WeatherDisplay:10.37,2015-03-02 18:34:00,
2015-03-02 12:39:00,38.1,37.6,30.30,ENE,58,8.1,8.1,98,0.00,CLR,,0.06,WeatherDisplay:10.37,2015-03-02 18:39:00,
2015-03-02 12:44:00,38.1,37.6,30.30,NE,34,3.5,3.5,98,0.00,CLR,,0.06,WeatherDisplay:10.37,2015-03-02 18:44:00,
2015-03-02 12:49:00,38.2,37.7,30.29,NNW,329,8.1,8.1,98,0.00,CLR,,0.06,WeatherDisplay:10.37,2015-03-02 18:49:00,
2015-03-02 12:54:00,38.1,37.6,30.29,NW,321,2.3,2.3,98,0.00,CLR,,0.06,WeatherDisplay:10.37,2015-03-02 18:54:00,
2015-03-02 12:59:00,38.1,37.6,30.28,NE,55,6.9,6.9,98,0.00,CLR,,0.06,WeatherDisplay:10.37,2015-03-02 18:59:00,
2015-03-02 13:04:00,38.5,38.0,30.29,East,86,1.2,1.2,98,0.00,CLR,,0.06,WeatherDisplay:10.37,2015-03-02 19:04:00,
2015-03-02 13:09:00,38.5,38.0,30.28,NNW,343,4.6,4.6,98,0.00,CLR,,0.06,WeatherDisplay:10.37,2015-03-02 19:09:00,
2015-03-02 13:14:00,38.5,38.0,30.27,East,88,3.5,3.5,98,0.00,CLR,,0.06,WeatherDisplay:10.37,2015-03-02 19:14:00,
2015-03-02 13:19:00,38.5,38.0,30.26,NNW,337,5.8,5.8,98,0.00,CLR,,0.06,WeatherDisplay:10.37,2015-03-02 19:19:00,
2015-03-02 13:24:00,38.7,38.2,30.25,NE,52,4.0,4.0,98,0.00,CLR,,0.06,WeatherDisplay:10.37,2015-03-02 19:24:00,
2015-03-02 13:29:00,38.8,38.3,30.26,NE,49,4.6,4.6,98,0.00,CLR,,0.06,WeatherDisplay:10.37,2015-03-02 19:29:00,
2015-03-02 13:34:00,38.8,38.3,30.25,NW,314,3.5,3.5,98,0.00,CLR,,0.06,WeatherDisplay:10.37,2015-03-02 19:34:00,
2015-03-02 13:39:00,39.0,38.5,30.26,NW,324,3.5,3.5,98,0.00,CLR,,0.06,WeatherDisplay:10.37,2015-03-02 19:39:00,
2015-03-02 13:44:00,39.1,38.6,30.25,ENE,58,3.5,3.5,98,0.00,CLR,,0.06,WeatherDisplay:10.37,2015-03-02 19:44:00,
2015-03-02 13:49:00,39.2,38.7,30.26,NW,325,3.5,3.5,98,0.00,CLR,,0.06,WeatherDisplay:10.37,2015-03-02 19:49:00,
2015-03-02 13:54:00,39.0,38.5,30.26,NNE,13,3.5,3.5,98,0.00,CLR,,0.06,WeatherDisplay:10.37,2015-03-02 19:54:00,
2015-03-02 13:59:00,39.0,38.5,30.26,NNW,329,4.0,4.0,98,0.00,CLR,,0.06,WeatherDisplay:10.37,2015-03-02 19:59:00,
2015-03-02 14:04:00,39.0,38.5,30.25,NNE,12,3.5,3.5,98,0.00,CLR,,0.06,WeatherDisplay:10.37,2015-03-02 20:04:00,
2015-03-02 14:09:00,39.1,38.6,30.25,NW,322,3.5,3.5,98,0.00,CLR,,0.06,WeatherDisplay:10.37,2015-03-02 20:09:00,
2015-03-02 14:14:00,39.0,38.5,30.25,NNE,13,3.5,3.5,98,0.00,CLR,,0.06,WeatherDisplay:10.37,2015-03-02 20:14:00,
2015-03-02 14:19:00,39.0,38.5,30.25,NNW,327,3.5,3.5,98,0.00,CLR,,0.06,WeatherDisplay:10.37,2015-03-02 20:19:00,
2015-03-02 14:24:00,39.1,38.6,30.24,NNW,336,3.5,3.5,98,0.00,CLR,,0.06,WeatherDisplay:10.37,2015-03-02 20:24:00,
2015-03-02 14:29:00,39.3,38.8,30.24,NW,325,4.0,4.0,98,0.00,CLR,,0.06,WeatherDisplay:10.37,2015-03-02 20:29:00,
2015-03-02 14:34:00,39.2,38.7,30.24,WNW,299,5.8,5.8,98,0.00,CLR,,0.06,WeatherDisplay:10.37,2015-03-02 20:34:00,
2015-03-02 14:39:00,39.3,38.8,30.23,NNW,329,4.6,4.6,98,0.00,CLR,,0.06,WeatherDisplay:10.37,2015-03-02 20:39:00,
2015-03-02 14:44:00,39.3,38.8,30.23,NNW,334,4.6,4.6,98,0.00,CLR,,0.06,WeatherDisplay:10.37,2015-03-02 20:44:00,
2015-03-02 14:49:00,39.4,38.9,30.23,NW,326,2.3,2.4,98,0.00,CLR,,0.06,WeatherDisplay:10.37,2015-03-02 20:49:00,
2015-03-02 14:54:00,39.3,38.8,30.23,East,82,3.5,3.5,98,0.00,CLR,,0.06,WeatherDisplay:10.37,2015-03-02 20:54:00,
2015-03-02 14:59:00,39.3,38.8,30.23,NW,323,3.5,3.7,98,0.00,CLR,,0.06,WeatherDisplay:10.37,2015-03-02 20:59:00,
2015-03-02 15:04:00,39.3,38.8,30.23,NE,34,3.5,3.5,98,0.00,CLR,,0.06,WeatherDisplay:10.37,2015-03-02 21:04:00,
2015-03-02 15:09:00,39.4,38.9,30.23,NW,325,4.6,4.6,98,0.00,CLR,,0.06,WeatherDisplay:10.37,2015-03-02 21:09:00,
2015-03-02 15:14:00,39.4,38.9,30.23,NNW,334,3.5,3.5,98,0.00,CLR,,0.06,WeatherDisplay:10.37,2015-03-02 21:14:00,
2015-03-02 15:19:00,39.6,39.1,30.23,NNW,342,2.3,2.3,98,0.00,CLR,,0.06,WeatherDisplay:10.37,2015-03-02 21:19:00,
2015-03-02 15:24:00,39.5,39.0,30.22,NNW,343,4.6,4.6,98,0.00,CLR,,0.06,WeatherDisplay:10.37,2015-03-02 21:24:00,
2015-03-02 15:29:00,39.5,39.0,30.22,NNW,342,5.8,5.8,98,0.00,CLR,,0.06,WeatherDisplay:10.37,2015-03-02 21:29:00,
2015-03-02 15:34:00,39.6,39.1,30.22,NW,310,3.5,4.2,98,0.00,CLR,,0.06,WeatherDisplay:10.37,2015-03-02 21:34:00,
2015-03-02 15:39:00,39.5,39.0,30.22,NE,38,6.0,6.0,98,0.00,CLR,,0.06,WeatherDisplay:10.37,2015-03-02 21:39:00,
2015-03-02 15:44:00,39.5,39.0,30.21,NNW,344,4.6,4.7,98,0.00,CLR,,0.06,WeatherDisplay:10.37,2015-03-02 21:44:00,
2015-03-02 15:49:00,39.5,39.0,30.22,North,355,4.6,4.6,98,0.00,CLR,,0.06,WeatherDisplay:10.37,2015-03-02 21:49:00,
2015-03-02 15:54:00,39.4,38.9,30.22,NNE,22,1.2,1.2,98,0.00,CLR,,0.06,WeatherDisplay:10.37,2015-03-02 21:54:00,
2015-03-02 15:59:00,39.5,39.0,30.22,ENE,66,2.3,2.3,98,0.00,CLR,,0.06,WeatherDisplay:10.37,2015-03-02 21:59:00,
2015-03-02 16:04:00,39.6,39.1,30.22,North,351,1.2,1.2,98,0.00,CLR,,0.06,WeatherDisplay:10.37,2015-03-02 22:04:00,
2015-03-02 16:09:00,39.5,39.0,30.22,NE,36,1.2,1.3,98,0.00,CLR,,0.06,WeatherDisplay:10.37,2015-03-02 22:09:00,
2015-03-02 16:14:00,39.5,39.0,30.21,NNW,328,3.5,3.5,98,0.00,CLR,,0.06,WeatherDisplay:10.37,2015-03-02 22:14:00,
2015-03-02 16:19:00,39.7,39.4,30.21,NW,318,2.3,2.3,99,0.00,CLR,,0.06,WeatherDisplay:10.37,2015-03-02 22:19:00,
2015-03-02 16:24:00,39.8,39.5,30.21,NNW,328,3.5,3.5,99,0.00,CLR,,0.06,WeatherDisplay:10.37,2015-03-02 22:24:00,
2015-03-02 16:29:00,39.7,39.4,30.20,East,82,3.5,3.5,99,0.00,CLR,,0.06,WeatherDisplay:10.37,2015-03-02 22:29:00,
2015-03-02 16:34:00,39.7,39.4,30.20,North,355,3.5,3.5,99,0.00,CLR,,0.06,WeatherDisplay:10.37,2015-03-02 22:34:00,
2015-03-02 16:39:00,39.8,39.5,30.20,NE,43,3.5,3.5,99,0.00,CLR,,0.06,WeatherDisplay:10.37,2015-03-02 22:39:00,
2015-03-02 16:44:00,39.9,39.6,30.19,NW,321,4.0,4.0,99,0.00,CLR,,0.06,WeatherDisplay:10.37,2015-03-02 22:44:00,
2015-03-02 16:49:00,39.8,39.5,30.20,NW,320,4.6,4.6,99,0.00,CLR,,0.06,WeatherDisplay:10.37,2015-03-02 22:49:00,
2015-03-02 16:54:00,39.8,39.5,30.20,North,349,2.0,2.0,99,0.00,CLR,,0.06,WeatherDisplay:10.37,2015-03-02 22:54:00,
2015-03-02 16:59:00,39.8,39.5,30.20,NNW,328,3.5,3.5,99,0.00,CLR,,0.06,WeatherDisplay:10.37,2015-03-02 22:59:00,
2015-03-02 17:04:00,39.7,39.4,30.19,NW,319,3.5,3.5,99,0.00,CLR,,0.06,WeatherDisplay:10.37,2015-03-02 23:04:00,
2015-03-02 17:09:00,39.7,39.4,30.19,North,350,3.5,3.5,99,0.00,CLR,,0.06,WeatherDisplay:10.37,2015-03-02 23:09:00,
2015-03-02 17:14:00,39.7,39.4,30.19,NW,316,3.5,3.5,99,0.00,CLR,,0.06,WeatherDisplay:10.37,2015-03-02 23:14:00,
2015-03-02 17:19:00,39.8,39.5,30.19,NNE,13,3.5,3.5,99,0.00,CLR,,0.06,WeatherDisplay:10.37,2015-03-02 23:19:00,
2015-03-02 17:24:00,39.8,39.5,30.19,NW,326,5.8,5.8,99,0.00,CLR,,0.06,WeatherDisplay:10.37,2015-03-02 23:24:00,
2015-03-02 17:29:00,39.7,39.4,30.19,NW,323,3.0,3.0,99,0.00,CLR,,0.06,WeatherDisplay:10.37,2015-03-02 23:29:00,
2015-03-02 17:34:00,39.7,39.4,30.19,NNE,17,0.0,0.0,99,0.00,CLR,,0.06,WeatherDisplay:10.37,2015-03-02 23:34:00,
2015-03-02 17:39:00,39.7,39.4,30.19,NW,317,1.2,0.0,99,0.00,CLR,,0.06,WeatherDisplay:10.37,2015-03-02 23:39:00,
2015-03-02 17:44:00,39.9,39.6,30.18,NW,321,2.3,2.3,99,0.00,CLR,,0.06,WeatherDisplay:10.37,2015-03-02 23:44:00,
2015-03-02 17:49:00,39.9,39.6,30.18,NNW,348,2.0,2.0,99,0.00,CLR,,0.06,WeatherDisplay:10.37,2015-03-02 23:49:00,
2015-03-02 17:54:00,39.9,39.6,30.18,NNW,327,1.2,1.2,99,0.00,CLR,,0.06,WeatherDisplay:10.37,2015-03-02 23:54:00,
2015-03-02 17:59:00,39.8,39.5,30.18,NNW,348,2.3,2.3,99,0.00,CLR,,0.06,WeatherDisplay:10.37,2015-03-02 23:59:00,
2015-03-02 18:04:00,39.8,39.5,30.18,North,9,0.0,0.0,99,0.00,CLR,,0.06,WeatherDisplay:10.37,2015-03-03 00:04:00,
2015-03-02 18:09:00,39.9,39.6,30.18,ENE,63,1.2,0.0,99,0.00,CLR,,0.06,WeatherDisplay:10.37,2015-03-03 00:09:00,
2015-03-02 18:14:00,39.9,39.6,30.18,North,11,2.3,2.3,99,0.00,CLR,,0.06,WeatherDisplay:10.37,2015-03-03 00:14:00,
2015-03-02 18:19:00,40.0,39.7,30.18,NNE,12,1.2,0.0,99,0.00,CLR,,0.06,WeatherDisplay:10.37,2015-03-03 00:19:00,